Laredo, TX

5:03 AM CST on February 21, 2017 (GMT -0600)
Laredo International

Weather History for KLRD - January, 2013

Change the Weather History Date:

Thursday, January 24, 2013

  Actual Average Record
Temperature  
Mean Temperature 74 °F 57 °F  
Max Temperature 85 °F 68 °F 94 °F (2017)
Min Temperature 62 °F 47 °F 16 °F (1930)
Degree Days  
Heating Degree Days 0 9  
Month to date heating degree days 213 232  
Since 1 July heating degree days 415 622  
Cooling Degree Days 9 1  
Month to date cooling degree days 19 24  
Year to date cooling degree days 19 24  
Growing Degree Days 23 (Base 50)    
Moisture  
Dew Point 59 °F    
Average Humidity 72    
Maximum Humidity 97    
Minimum Humidity 34    
Precipitation  
Precipitation 0.00 in 0.03 in 1.20 in (2007)
Month to date precipitation 0.44 0.70  
Year to date precipitation 0.44 0.70  
Sea Level Pressure  
Sea Level Pressure 30.19 in    
Wind  
Wind Speed 9 mph (SSE)    
Max Wind Speed 17 mph    
Max Gust Speed 20 mph    
Visibility 10 miles    
Events      
T = Trace of Precipitation, MM = Missing Value Source: NWS Daily Summary

Daily Weather History Graph

Daily Weather History Graph

Search for Another Location

Airport or City:

Trip Planner

Search our weather history database for the weather conditions in past years. The results will help you decide how hot, cold, wet, or windy it might be!

Date:

Astronomy

Jan. 24, 2013 Rise Set
Actual Time 7:27 AM CST 6:12 PM CST
Civil Twilight 7:02 AM CST 6:37 PM CST
Nautical Twilight 6:34 AM CST 7:05 PM CST
Astronomical Twilight 6:06 AM CST 7:33 PM CST
Moon 4:18 PM CST (1/24) 5:23 AM CST (1/24)
Length of Visible Light 11h 34m
Length of Day
10h 45m
Waxing Gibbous, 94% of the Moon is Illuminated
Jan 24
Waxing Gibbous
Jan 26
Full
Feb 3
Last Quarter
Feb 10
New
Feb 17
First Quarter

Hourly Weather History & Observations

Time (CST) Temp. Heat Index Dew Point Humidity Pressure Visibility Wind Dir Wind Speed Gust Speed Precip Events Conditions
12:56 AM 64.9 °F - 61.0 °F 87% 30.22 in 10.0 mi SSE 9.2 mph - N/A   Clear
1:56 AM 63.9 °F - 61.0 °F 90% 30.21 in 10.0 mi SSE 8.1 mph - N/A   Clear
2:40 AM 64.4 °F - 62.6 °F 94% 30.25 in 10.0 mi SSE 5.8 mph - N/A   Scattered Clouds
2:56 AM 63.9 °F - 61.9 °F 93% 30.22 in 10.0 mi SSE 6.9 mph - N/A   Mostly Cloudy
3:56 AM 63.9 °F - 61.9 °F 93% 30.21 in 10.0 mi SSE 9.2 mph - N/A   Overcast
4:56 AM 63.9 °F - 61.9 °F 93% 30.20 in 10.0 mi SSE 10.4 mph - N/A   Mostly Cloudy
5:24 AM 64.4 °F - 62.6 °F 94% 30.23 in 9.0 mi SSE 11.5 mph - N/A   Scattered Clouds
5:56 AM 63.0 °F - 61.9 °F 96% 30.21 in 10.0 mi South 9.2 mph - N/A   Partly Cloudy
6:56 AM 63.0 °F - 61.9 °F 96% 30.22 in 8.0 mi South 8.1 mph - N/A   Mostly Cloudy
7:17 AM 62.6 °F - 62.6 °F 100% 30.25 in 8.0 mi South 11.5 mph - N/A   Overcast
7:56 AM 63.0 °F - 61.9 °F 96% 30.24 in 6.0 mi South 8.1 mph - N/A   Overcast
8:56 AM 64.4 °F - 62.6 °F 94% 30.28 in 9.0 mi SSE 8.1 mph - N/A   Mostly Cloudy
9:23 AM 66.2 °F - 60.8 °F 83% 30.29 in 10.0 mi South 8.1 mph - N/A   Scattered Clouds
9:56 AM 68.9 °F - 61.0 °F 76% 30.27 in 10.0 mi South 8.1 mph - N/A   Clear
10:56 AM 72.0 °F - 61.0 °F 68% 30.27 in 10.0 mi SSE 10.4 mph - N/A   Partly Cloudy
11:56 AM 73.9 °F - 61.0 °F 64% 30.24 in 10.0 mi SSE 9.2 mph - N/A   Clear
12:56 PM 77.9 °F - 59.9 °F 54% 30.19 in 10.0 mi South 11.5 mph - N/A   Clear
1:56 PM 79.9 °F - 59.0 °F 49% 30.16 in 10.0 mi SE 8.1 mph - N/A   Clear
2:56 PM 82.4 °F 82.0 °F 57.2 °F 42% 30.15 in 10.0 mi South 10.4 mph - N/A   Clear
3:56 PM 84.9 °F 83.6 °F 54.9 °F 36% 30.10 in 10.0 mi SSE 8.1 mph 18.4 mph N/A   Clear
4:56 PM 83.8 °F - 52.9 °F 34% 30.09 in 10.0 mi SE 11.5 mph - N/A   Clear
5:56 PM 81.9 °F - 52.0 °F 35% 30.09 in 10.0 mi SSE 12.7 mph - N/A   Clear
6:56 PM 77.0 °F - 52.0 °F 42% 30.10 in 10.0 mi SSE 6.9 mph - N/A   Clear
7:56 PM 72.9 °F - 52.0 °F 48% 30.12 in 10.0 mi SSE 6.9 mph - N/A   Clear
8:56 PM 70.9 °F - 52.9 °F 53% 30.12 in 10.0 mi SSE 6.9 mph - N/A   Clear
9:56 PM 70.9 °F - 57.9 °F 63% 30.13 in 10.0 mi SSE 12.7 mph - N/A   Clear
10:56 PM 70.0 °F - 61.0 °F 73% 30.14 in 10.0 mi SSE 12.7 mph - N/A   Clear
11:56 PM 68.0 °F - 61.9 °F 81% 30.13 in 10.0 mi SSE 13.8 mph - N/A   Clear